Regional Weather Roundup
Issued by NWS Memphis, TN

Home | Current Version | Previous Version | Text Only | Print | Product List | Glossary On
Versions: 1 2 3 4 5 6 7 8 9 10 11 12 13 14 15 16 17 18 19 20 21 22 23 24 25 26 27 28 29 30 31 32 33 34 35 36 37 38 39 40 41 42 43 44 45 46 47 48 49 50
000
ASUS44 KMEG 280310
RWRMEG
MEMPHIS CWA HOURLY WEATHER ROUNDUP
NATIONAL WEATHER SERVICE MEMPHIS TN
1000 PM CDT WED MAY 27 2015

...WEST TENNESSEE...

CITY           SKY/WX    TMP DP  RH WIND       PRES   REMARKS
MEMPHIS INTL   MOCLDY    72  67  84 SE5       30.12R
NWS MEMPHIS      N/A     70 N/A N/A MISG        N/A
JACKSON        CLOUDY    70  65  84 SE5       30.14R
LEXINGTON      CLEAR     66  66 100 SE3       30.15S
DYERSBURG      MOCLDY    72  55  56 SE3       30.13R
PARIS          CLEAR     66  66 100 SE5       30.16R


...EASTERN ARKANSAS...

CITY           SKY/WX    TMP DP  RH WIND       PRES   REMARKS
JONESBORO      PTCLDY    71  67  87 S3        30.11R
WEST MEMPHIS   CLOUDY    69  69 100 SE3       30.10R
BATESVILLE     CLEAR     73  66  78 SE6       30.10R
NEWPORT        CLEAR     72  69  90 S6        30.11R
WALNUT RIDGE   CLEAR     72  66  83 S8        30.10R
BLYTHEVILLE    CLOUDY    71  70  96 SE3       30.12R
SEARCY         CLEAR     72  69  90 SE7       30.12R
STUTTGART      CLEAR     73  68  83 SE7       30.11R
PINE BLUFF     CLEAR     73  69  87 SE5       30.10R
MONTICELLO     CLEAR     71  70  96 E3        30.10R


...NORTH MISSISSIPPI...

CITY           SKY/WX    TMP DP  RH WIND       PRES   REMARKS
TUPELO         CLOUDY    68  65  90 VRB6      30.13R
OXFORD         CLOUDY    66  64  94 SE6       30.15R
OLIVE BRANCH   CLEAR     68  68 100 SE3       30.13R
TUNICA         MOCLDY    70  66  88 CALM      30.12R
CLARKSDALE     MOCLDY    70  70 100 CALM      30.13R
CORINTH        CLOUDY    68  64  88 SE5       30.14R
GREENWOOD      MOCLDY    70  67  90 S3        30.11R
COLUMBUS       CLOUDY    70 N/A N/A E7        30.13R
STARKVILLE     FAIR      68  68 100 E3        30.13S
GOLDEN TRIANGL CLOUDY    68  64  88 SE12      30.13S


...SOUTHEAST MISSOURI...

CITY           SKY/WX    TMP DP  RH WIND       PRES   REMARKS
WEST PLAINS    CLOUDY    70  64  81 N5        30.13R THUNDER
POPLAR BLUFF   PTCLDY    73  68  84 S7        30.09R
CAPE GIRARDEAU MOCLDY    71  69  93 SE8       30.11R


...NORTHWEST ALABAMA...

CITY           SKY/WX    TMP DP  RH WIND       PRES   REMARKS
MUSCLE SHOALS  LGT RAIN  68  65  90 SE8       30.19S


...MIDDLE TENNESSEE...

CITY           SKY/WX    TMP DP  RH WIND       PRES   REMARKS
NASHVILLE      CLOUDY    69  67  93 S6        30.20R
CLARKSVILLE    CLOUDY    68  66  93 SE5       30.16R
COLUMBIA       CLOUDY    68  68 100 SE3       30.18R


...WESTERN KENTUCKY...

CITY           SKY/WX    TMP DP  RH WIND       PRES   REMARKS
PADUCAH        MOCLDY    70  66  87 SE3       30.12R
FORT CAMPBELL  CLOUDY    70  67  90 SE5       30.16R


...CENTRAL ARKANSAS...

CITY           SKY/WX    TMP DP  RH WIND       PRES   REMARKS
LITTLE ROCK    PTCLDY    76  68  76 SE10      30.09R


SKY/WX REPORTED AS FAIR MEANS FEW OR NO CLOUDS BELOW
12 THOUSAND FEET.




USA.gov is the U.S. government's official web portal to all federal, state and local government web resources and services.